Retour au catalogue

STARLINK-31006

ActifCommunicationsVLEO
NORAD 59024·PAYLOAD·🇺🇸 United States

Lancé Feb 25, 2024 depuis Cape Canaveral Space Force Station

Loading…

Prochains Passages (prochaines 24 heures)

TLE

FraisSource: CelesTrak SupGP

Époque: Sep 14, 2026, 21:26 UTC

1 59024C 24038B   26257.89354167 -.00003878  00000+0 -14053-3 0  2572
2 59024  43.0014 348.0884 0001533 279.8701 200.1141 15.27566973    16

Suivez STARLINK-31006 en temps réel avec AllMySat

Download on the App Store